Simultaneous Nadir Overpasses (SNOs) Predictions

Prediction of SNOs between AQUA and LANDSAT-8 Satellite Orbit:

Table of predicted SNOs for the next 14.0 days since TLE Epoch: 9/7/2024
Index Date (AQUA) Time (AQUA) Lat,Lon (AQUA) SZA (AQUA ) Date (LANDSAT-8) Time (LANDSAT-8) Lat,Lon (LANDSAT-8) SZA (LANDSAT-8 ) Distance(km) Time Diff (sec)
1 09/14/2024 02:01:37 73.40, 154.61 70.14 09/14/2024 02:00:32 73.40, 151.73 70.06 91.69 65
2 09/14/2024 02:51:03 -73.72, -38.41 109.55 09/14/2024 02:49:54 -73.70, -40.00 109.62 49.57 69
3 09/14/2024 03:40:27 73.83, 129.01 70.57 09/14/2024 03:39:17 73.82, 127.90 70.52 34.46 70
4 09/14/2024 04:29:52 -74.09, -63.92 109.18 09/14/2024 04:28:40 -74.06, -63.91 109.21 3.31 72
5 09/14/2024 05:19:14 74.09, 103.73 70.84 09/14/2024 05:18:05 74.07, 103.76 70.82 2.16 69
6 09/14/2024 06:08:34 -74.10, -88.61 109.15 09/14/2024 06:07:32 -74.11, -88.52 109.13 3.17 62
7 09/14/2024 06:57:56 74.10, 79.04 70.88 09/14/2024 06:56:58 74.07, 79.04 70.84 2.84 58
8 09/14/2024 07:47:16 -74.10,-113.30 109.11 09/14/2024 07:46:25 -74.11,-113.24 109.11 1.85 51
9 09/14/2024 08:36:38 74.10, 54.35 70.91 09/14/2024 08:35:50 74.12, 54.44 70.92 3.18 48
10 09/14/2024 09:25:58 -74.11,-137.99 109.08 09/14/2024 09:25:18 -74.11,-137.97 109.08 0.71 40
11 09/14/2024 10:15:20 74.11, 29.67 70.94 09/14/2024 10:14:43 74.12, 29.71 70.95 1.79 37
12 09/14/2024 11:04:40 -74.12,-162.68 109.05 09/14/2024 11:04:11 -74.11,-162.69 109.06 1.18 29
13 09/14/2024 11:54:02 74.12, 4.98 70.98 09/14/2024 11:53:36 74.12, 4.99 70.97 0.42 26
14 09/14/2024 12:43:22 -74.12, 172.63 109.01 09/14/2024 12:43:04 -74.10, 172.59 109.03 2.48 18
15 09/14/2024 13:32:44 74.13, -19.71 71.01 09/14/2024 13:32:29 74.12, -19.73 71.00 1.04 15
16 09/14/2024 14:22:04 -74.13, 147.94 108.98 09/14/2024 14:21:56 -74.15, 147.98 108.95 2.96 8
17 09/14/2024 15:11:26 74.13, -44.41 71.04 09/14/2024 15:11:22 74.12, -44.46 71.02 2.45 4
18 09/14/2024 16:00:46 -74.14, 123.25 108.95 09/14/2024 16:00:49 -74.15, 123.26 108.93 1.74 3
19 09/14/2024 16:50:08 74.14, -69.10 71.08 09/14/2024 16:50:14 74.17, -69.06 71.10 3.07 6
20 09/14/2024 17:39:28 -74.15, 98.56 108.91 09/14/2024 17:39:42 -74.15, 98.54 108.90 1.09 14
21 09/14/2024 18:28:50 74.15, -93.79 71.11 09/14/2024 18:29:07 74.17, -93.79 71.13 1.87 17
22 09/14/2024 19:18:10 -74.15, 73.87 108.88 09/14/2024 19:18:35 -74.15, 73.81 108.88 1.84 25
23 09/14/2024 20:07:32 74.16,-118.48 71.14 09/14/2024 20:08:00 74.16,-118.51 71.15 1.30 28
24 09/14/2024 20:56:52 -74.16, 49.18 108.84 09/14/2024 20:57:28 -74.15, 49.09 108.85 3.11 36
25 09/14/2024 21:46:14 74.17,-143.17 71.18 09/14/2024 21:46:53 74.16,-143.24 71.18 2.01 39
26 09/14/2024 22:35:34 -74.17, 24.49 108.81 09/14/2024 22:36:20 -74.20, 24.48 108.78 3.32 46
27 09/14/2024 23:24:56 74.17,-167.86 71.21 09/14/2024 23:25:46 74.16,-167.96 71.20 3.26 50
28 09/15/2024 00:14:16 -74.18, -0.20 108.78 09/15/2024 00:15:13 -74.20, -0.24 108.75 2.52 57
29 09/15/2024 01:03:38 74.18, 167.45 71.25 09/15/2024 01:04:38 74.21, 167.44 71.28 3.29 60
30 09/15/2024 01:52:58 -74.19, -24.90 108.74 09/15/2024 01:54:06 -74.20, -24.97 108.73 2.41 68
31 09/15/2024 02:42:20 74.19, 142.75 71.28 09/15/2024 02:43:31 74.21, 142.71 71.31 2.49 71
32 09/15/2024 03:31:45 -74.45, -50.21 108.46 09/15/2024 03:32:55 -74.40, -49.21 108.48 30.35 70
33 09/15/2024 04:21:09 74.56, 117.19 71.66 09/15/2024 04:22:18 74.52, 118.72 71.66 45.74 69
34 09/15/2024 05:10:35 -74.86, -75.93 108.04 09/15/2024 05:11:40 -74.80, -72.93 108.03 87.56 65



Historial Predications of SNOs between AQUA and LANDSAT-8
